contact:dominique.lefevre@mio.osupytheas.fr, maurice.libes@osupytheas.fr, didier.mallarino@osupytheas.fr
Project:EMSO http://www.emso-fr.org/EMSO-France
Depth: 2436.0 m
Title:EMSO Ligure Ouest : Data MII capteur MICROCAT
DateTime_Computer,Latitude,Longitude,Temperature,Conductivity,Pressure,DateTime_Instrument
DateTime_Computer,Latitude,Longitude,degC,S m-1,dbar,DateTime_Instrument
2023-08-21T00:01:15Z,42.805,6.029,13.3030,4.60114,2470.763,2023-8-21T02:03:35Z
2023-08-21T00:04:18Z,42.805,6.029,13.3033,4.60122,2470.777,2023-8-21T02:06:38Z
2023-08-21T00:07:21Z,42.805,6.029,13.3029,4.60119,2470.754,2023-8-21T02:09:41Z
2023-08-21T00:10:24Z,42.805,6.029,13.3033,4.60122,2470.707,2023-8-21T02:12:44Z
2023-08-21T00:13:27Z,42.805,6.029,13.3040,4.60122,2470.8,2023-8-21T02:15:47Z
2023-08-21T00:16:30Z,42.805,6.029,13.3084,4.60119,2470.74,2023-8-21T02:18:50Z
2023-08-21T00:19:33Z,42.805,6.029,13.3053,4.60127,2470.74,2023-8-21T02:21:53Z
2023-08-21T00:22:36Z,42.805,6.029,13.3033,4.60117,2470.717,2023-8-21T02:24:56Z
2023-08-21T00:25:39Z,42.805,6.029,13.3031,4.60120,2470.74,2023-8-21T02:27:59Z
2023-08-21T00:28:43Z,42.805,6.029,13.3034,4.60117,2470.754,2023-8-21T02:31:02Z
2023-08-21T00:31:46Z,42.805,6.029,13.3032,4.60108,2470.73,2023-8-21T02:34:05Z
2023-08-21T00:34:49Z,42.805,6.029,13.3029,4.60103,2470.74,2023-8-21T02:37:09Z
2023-08-21T00:37:52Z,42.805,6.029,13.3030,4.60105,2470.717,2023-8-21T02:40:12Z
2023-08-21T00:40:55Z,42.805,6.029,13.3034,4.60106,2470.73,2023-8-21T02:43:15Z
2023-08-21T00:43:58Z,42.805,6.029,13.3033,4.60104,2470.74,2023-8-21T02:46:18Z
2023-08-21T00:47:01Z,42.805,6.029,13.3029,4.60103,2470.717,2023-8-21T02:49:21Z
2023-08-21T00:50:04Z,42.805,6.029,13.3032,4.60102,2470.74,2023-8-21T02:52:24Z
2023-08-21T00:53:07Z,42.805,6.029,13.3031,4.60099,2470.707,2023-8-21T02:55:27Z
2023-08-21T00:56:10Z,42.805,6.029,13.3029,4.60101,2470.693,2023-8-21T02:58:30Z
2023-08-21T00:59:13Z,42.805,6.029,13.3025,4.60100,2470.693,2023-8-21T03:01:33Z
2023-08-21T01:02:16Z,42.805,6.029,13.3031,4.60099,2470.717,2023-8-21T03:04:36Z
2023-08-21T01:05:20Z,42.805,6.029,13.3031,4.60098,2470.693,2023-8-21T03:07:39Z
2023-08-21T01:08:23Z,42.805,6.029,13.3029,4.60099,2470.73,2023-8-21T03:10:42Z
2023-08-21T01:11:26Z,42.805,6.029,13.3029,4.60102,2470.693,2023-8-21T03:13:46Z
2023-08-21T01:14:29Z,42.805,6.029,13.3031,4.60099,2470.754,2023-8-21T03:16:49Z
2023-08-21T01:17:32Z,42.805,6.029,13.3031,4.60102,2470.707,2023-8-21T03:19:52Z
2023-08-21T01:20:35Z,42.805,6.029,13.3031,4.60102,2470.693,2023-8-21T03:22:55Z
2023-08-21T01:23:38Z,42.805,6.029,13.3031,4.60104,2470.693,2023-8-21T03:25:58Z
2023-08-21T01:26:41Z,42.805,6.029,13.3029,4.60111,2470.693,2023-8-21T03:29:01Z
2023-08-21T01:29:44Z,42.805,6.029,13.3033,4.60110,2470.73,2023-8-21T03:32:04Z
2023-08-21T01:32:47Z,42.805,6.029,13.3029,4.60108,2470.693,2023-8-21T03:35:07Z
2023-08-21T01:35:50Z,42.805,6.029,13.3029,4.60104,2470.717,2023-8-21T03:38:10Z
2023-08-21T01:38:53Z,42.805,6.029,13.3029,4.60099,2470.707,2023-8-21T03:41:13Z
2023-08-21T01:41:57Z,42.805,6.029,13.3031,4.60100,2470.67,2023-8-21T03:44:16Z
2023-08-21T01:45:00Z,42.805,6.029,13.3028,4.60099,2470.684,2023-8-21T03:47:19Z
2023-08-21T01:48:03Z,42.805,6.029,13.3031,4.60113,2470.67,2023-8-21T03:50:23Z
2023-08-21T01:51:06Z,42.805,6.029,13.3028,4.60112,2470.67,2023-8-21T03:53:26Z
2023-08-21T01:54:09Z,42.805,6.029,13.3034,4.60111,2470.67,2023-8-21T03:56:29Z
2023-08-21T01:57:12Z,42.805,6.029,13.3031,4.60099,2470.693,2023-8-21T03:59:32Z
2023-08-21T02:00:15Z,42.805,6.029,13.3028,4.60099,2470.684,2023-8-21T04:02:35Z
2023-08-21T02:03:18Z,42.805,6.029,13.3036,4.60101,2470.693,2023-8-21T04:05:38Z
2023-08-21T02:06:21Z,42.805,6.029,13.3031,4.60102,2470.684,2023-8-21T04:08:41Z
2023-08-21T02:09:24Z,42.805,6.029,13.3027,4.60108,2470.693,2023-8-21T04:11:44Z
2023-08-21T02:12:27Z,42.805,6.029,13.3029,4.60104,2470.67,2023-8-21T04:14:47Z
2023-08-21T02:15:30Z,42.805,6.029,13.3029,4.60095,2470.693,2023-8-21T04:17:50Z
2023-08-21T02:18:34Z,42.805,6.029,13.3031,4.60094,2470.661,2023-8-21T04:20:53Z
2023-08-21T02:21:37Z,42.805,6.029,13.3031,4.60094,2470.67,2023-8-21T04:23:56Z
2023-08-21T02:24:40Z,42.805,6.029,13.3031,4.60096,2470.693,2023-8-21T04:27:00Z
2023-08-21T02:27:43Z,42.805,6.029,13.3030,4.60095,2470.693,2023-8-21T04:30:03Z
2023-08-21T02:30:46Z,42.805,6.029,13.3030,4.60099,2470.646,2023-8-21T04:33:06Z
2023-08-21T02:33:49Z,42.805,6.029,13.3031,4.60098,2470.67,2023-8-21T04:36:09Z
2023-08-21T02:36:52Z,42.805,6.029,13.3028,4.60093,2470.646,2023-8-21T04:39:12Z
2023-08-21T02:39:55Z,42.805,6.029,13.3030,4.60097,2470.707,2023-8-21T04:42:15Z
2023-08-21T02:42:58Z,42.805,6.029,13.3029,4.60094,2470.684,2023-8-21T04:45:18Z
2023-08-21T02:46:01Z,42.805,6.029,13.3027,4.60097,2470.656,2023-8-21T04:48:21Z
2023-08-21T02:49:04Z,42.805,6.029,13.3030,4.60093,2470.661,2023-8-21T04:51:24Z
2023-08-21T02:52:07Z,42.805,6.029,13.3029,4.60099,2470.646,2023-8-21T04:54:27Z
2023-08-21T02:55:11Z,42.805,6.029,13.3035,4.60095,2470.624,2023-8-21T04:57:30Z
2023-08-21T02:58:14Z,42.805,6.029,13.3036,4.60094,2470.624,2023-8-21T05:00:33Z
2023-08-21T03:01:17Z,42.805,6.029,13.3032,4.60094,2470.646,2023-8-21T05:03:37Z
2023-08-21T03:04:20Z,42.805,6.029,13.3031,4.60104,2470.67,2023-8-21T05:06:40Z
2023-08-21T03:07:23Z,42.805,6.029,13.3034,4.60094,2470.661,2023-8-21T05:09:43Z
2023-08-21T03:10:26Z,42.805,6.029,13.3036,4.60097,2470.67,2023-8-21T05:12:46Z
2023-08-21T03:13:29Z,42.805,6.029,13.3036,4.60094,2470.67,2023-8-21T05:15:49Z
2023-08-21T03:16:32Z,42.805,6.029,13.3035,4.60097,2470.67,2023-8-21T05:18:52Z
2023-08-21T03:19:35Z,42.805,6.029,13.3033,4.60094,2470.633,2023-8-21T05:21:55Z
2023-08-21T03:22:38Z,42.805,6.029,13.3035,4.60095,2470.646,2023-8-21T05:24:58Z
2023-08-21T03:25:41Z,42.805,6.029,13.3034,4.60095,2470.646,2023-8-21T05:28:01Z
2023-08-21T03:28:44Z,42.805,6.029,13.3034,4.60095,2470.646,2023-8-21T05:31:04Z
2023-08-21T03:31:47Z,42.805,6.029,13.3030,4.60093,2470.646,2023-8-21T05:34:07Z
2023-08-21T03:34:51Z,42.805,6.029,13.3035,4.60096,2470.661,2023-8-21T05:37:10Z
2023-08-21T03:37:54Z,42.805,6.029,13.3031,4.60095,2470.646,2023-8-21T05:40:13Z
2023-08-21T03:40:57Z,42.805,6.029,13.3037,4.60095,2470.661,2023-8-21T05:43:17Z
2023-08-21T03:44:00Z,42.805,6.029,13.3034,4.60092,2470.646,2023-8-21T05:46:20Z
2023-08-21T03:47:03Z,42.805,6.029,13.3035,4.60094,2470.661,2023-8-21T05:49:23Z
2023-08-21T03:50:06Z,42.805,6.029,13.3033,4.60094,2470.646,2023-8-21T05:52:26Z
2023-08-21T03:53:09Z,42.805,6.029,13.3033,4.60092,2470.67,2023-8-21T05:55:29Z
2023-08-21T03:56:12Z,42.805,6.029,13.3034,4.60092,2470.646,2023-8-21T05:58:32Z
2023-08-21T03:59:15Z,42.805,6.029,13.3030,4.60096,2470.67,2023-8-21T06:01:35Z
2023-08-21T04:02:18Z,42.805,6.029,13.3029,4.60094,2470.624,2023-8-21T06:04:38Z
2023-08-21T04:05:21Z,42.805,6.029,13.3032,4.60097,2470.661,2023-8-21T06:07:41Z
2023-08-21T04:08:25Z,42.805,6.029,13.3032,4.60097,2470.646,2023-8-21T06:10:44Z
2023-08-21T04:11:28Z,42.805,6.029,13.3032,4.60092,2470.67,2023-8-21T06:13:47Z
2023-08-21T04:14:31Z,42.805,6.029,13.3037,4.60091,2470.67,2023-8-21T06:16:51Z
2023-08-21T04:17:34Z,42.805,6.029,13.3032,4.60092,2470.661,2023-8-21T06:19:54Z
2023-08-21T04:20:37Z,42.805,6.029,13.3041,4.60096,2470.624,2023-8-21T06:22:57Z
2023-08-21T04:23:40Z,42.805,6.029,13.3036,4.60097,2470.646,2023-8-21T06:26:00Z
2023-08-21T04:26:43Z,42.805,6.029,13.3035,4.60094,2470.637,2023-8-21T06:29:03Z
2023-08-21T04:29:46Z,42.805,6.029,13.3031,4.60092,2470.67,2023-8-21T06:32:06Z
2023-08-21T04:32:49Z,42.805,6.029,13.3031,4.60094,2470.646,2023-8-21T06:35:09Z
2023-08-21T04:35:52Z,42.805,6.029,13.3037,4.60101,2470.661,2023-8-21T06:38:12Z
2023-08-21T04:38:55Z,42.805,6.029,13.3036,4.60092,2470.646,2023-8-21T06:41:15Z
2023-08-21T04:41:58Z,42.805,6.029,13.3031,4.60094,2470.6,2023-8-21T06:44:18Z
2023-08-21T04:45:02Z,42.805,6.029,13.3024,4.60093,2470.646,2023-8-21T06:47:21Z
2023-08-21T04:48:05Z,42.805,6.029,13.3032,4.60092,2470.661,2023-8-21T06:50:24Z
2023-08-21T04:51:08Z,42.805,6.029,13.3031,4.60099,2470.661,2023-8-21T06:53:28Z
2023-08-21T04:54:11Z,42.805,6.029,13.3032,4.60094,2470.661,2023-8-21T06:56:31Z
2023-08-21T04:57:14Z,42.805,6.029,13.3030,4.60092,2470.624,2023-8-21T06:59:34Z
2023-08-21T05:00:17Z,42.805,6.029,13.3026,4.60093,2470.624,2023-8-21T07:02:37Z
2023-08-21T05:03:20Z,42.805,6.029,13.3031,4.60092,2470.646,2023-8-21T07:05:40Z
2023-08-21T05:06:23Z,42.805,6.029,13.3031,4.60092,2470.624,2023-8-21T07:08:43Z
2023-08-21T05:09:26Z,42.805,6.029,13.3031,4.60092,2470.646,2023-8-21T07:11:46Z
2023-08-21T05:12:29Z,42.805,6.029,13.3031,4.60094,2470.633,2023-8-21T07:14:49Z
2023-08-21T05:15:32Z,42.805,6.029,13.3032,4.60091,2470.637,2023-8-21T07:17:52Z
2023-08-21T05:18:35Z,42.805,6.029,13.3031,4.60092,2470.637,2023-8-21T07:20:55Z
2023-08-21T05:21:39Z,42.805,6.029,13.3029,4.60095,2470.661,2023-8-21T07:23:58Z
2023-08-21T05:24:42Z,42.805,6.029,13.3029,4.60092,2470.646,2023-8-21T07:27:01Z
2023-08-21T05:27:45Z,42.805,6.029,13.3027,4.60092,2470.646,2023-8-21T07:30:05Z
2023-08-21T05:30:48Z,42.805,6.029,13.3032,4.60093,2470.61,2023-8-21T07:33:08Z
2023-08-21T05:33:51Z,42.805,6.029,13.3032,4.60109,2470.624,2023-8-21T07:36:11Z
2023-08-21T05:36:54Z,42.805,6.029,13.3032,4.60092,2470.661,2023-8-21T07:39:14Z
2023-08-21T05:39:57Z,42.805,6.029,13.3031,4.60094,2470.637,2023-8-21T07:42:17Z
2023-08-21T05:43:00Z,42.805,6.029,13.3031,4.60104,2470.637,2023-8-21T07:45:20Z
2023-08-21T05:46:03Z,42.805,6.029,13.3032,4.60093,2470.624,2023-8-21T07:48:23Z
2023-08-21T05:49:06Z,42.805,6.029,13.3030,4.60091,2470.637,2023-8-21T07:51:26Z
2023-08-21T05:52:09Z,42.805,6.029,13.3033,4.60092,2470.67,2023-8-21T07:54:29Z
2023-08-21T05:55:12Z,42.805,6.029,13.3031,4.60094,2470.633,2023-8-21T07:57:32Z
2023-08-21T05:58:16Z,42.805,6.029,13.3031,4.60094,2470.684,2023-8-21T08:00:35Z
2023-08-21T06:01:19Z,42.805,6.029,13.3031,4.60092,2470.637,2023-8-21T08:03:38Z
2023-08-21T06:04:22Z,42.805,6.029,13.3029,4.60094,2470.646,2023-8-21T08:06:42Z
2023-08-21T06:07:25Z,42.805,6.029,13.3031,4.60096,2470.684,2023-8-21T08:09:45Z
2023-08-21T06:10:28Z,42.805,6.029,13.3029,4.60093,2470.67,2023-8-21T08:12:48Z
2023-08-21T06:13:31Z,42.805,6.029,13.3036,4.60093,2470.684,2023-8-21T08:15:51Z
2023-08-21T06:16:34Z,42.805,6.029,13.3027,4.60094,2470.67,2023-8-21T08:18:54Z
2023-08-21T06:19:37Z,42.805,6.029,13.3027,4.60094,2470.661,2023-8-21T08:21:57Z
2023-08-21T06:22:40Z,42.805,6.029,13.3030,4.60095,2470.67,2023-8-21T08:25:00Z
2023-08-21T06:25:43Z,42.805,6.029,13.3032,4.60093,2470.661,2023-8-21T08:28:03Z
2023-08-21T06:28:46Z,42.805,6.029,13.3031,4.60092,2470.656,2023-8-21T08:31:06Z
2023-08-21T06:31:48Z,42.805,6.029,13.3033,4.60091,2470.684,2023-8-21T08:34:08Z
2023-08-21T06:34:51Z,42.805,6.029,13.3036,4.60095,2470.67,2023-8-21T08:37:11Z
2023-08-21T06:37:54Z,42.805,6.029,13.3031,4.60102,2470.67,2023-8-21T08:40:14Z
2023-08-21T06:40:57Z,42.805,6.029,13.3030,4.60107,2470.67,2023-8-21T08:43:17Z
2023-08-21T06:44:00Z,42.805,6.029,13.3033,4.60104,2470.707,2023-8-21T08:46:20Z
2023-08-21T06:47:03Z,42.805,6.029,13.3031,4.60094,2470.707,2023-8-21T08:49:23Z
2023-08-21T06:50:06Z,42.805,6.029,13.3029,4.60095,2470.693,2023-8-21T08:52:26Z
2023-08-21T06:53:10Z,42.805,6.029,13.3029,4.60095,2470.693,2023-8-21T08:55:29Z
2023-08-21T06:56:13Z,42.805,6.029,13.3032,4.60102,2470.693,2023-8-21T08:58:32Z
2023-08-21T06:59:16Z,42.805,6.029,13.3032,4.60094,2470.684,2023-8-21T09:01:36Z
2023-08-21T07:02:19Z,42.805,6.029,13.3034,4.60095,2470.707,2023-8-21T09:04:39Z
2023-08-21T07:05:22Z,42.805,6.029,13.3028,4.60096,2470.693,2023-8-21T09:07:42Z
2023-08-21T07:08:25Z,42.805,6.029,13.3034,4.60092,2470.67,2023-8-21T09:10:45Z
2023-08-21T07:11:28Z,42.805,6.029,13.3028,4.60099,2470.707,2023-8-21T09:13:48Z
2023-08-21T07:14:31Z,42.805,6.029,13.3031,4.60100,2470.684,2023-8-21T09:16:51Z
2023-08-21T07:17:34Z,42.805,6.029,13.3029,4.60104,2470.693,2023-8-21T09:19:54Z
2023-08-21T07:20:37Z,42.805,6.029,13.3034,4.60094,2470.717,2023-8-21T09:22:57Z
2023-08-21T07:23:40Z,42.805,6.029,13.3030,4.60093,2470.717,2023-8-21T09:26:00Z
2023-08-21T07:26:43Z,42.805,6.029,13.3029,4.60094,2470.693,2023-8-21T09:29:03Z
2023-08-21T07:29:46Z,42.805,6.029,13.3034,4.60099,2470.754,2023-8-21T09:32:06Z
2023-08-21T07:32:50Z,42.805,6.029,13.3031,4.60096,2470.693,2023-8-21T09:35:09Z
2023-08-21T07:35:53Z,42.805,6.029,13.3031,4.60097,2470.74,2023-8-21T09:38:12Z
2023-08-21T07:38:56Z,42.805,6.029,13.3029,4.60097,2470.693,2023-8-21T09:41:16Z
2023-08-21T07:41:59Z,42.805,6.029,13.3033,4.60100,2470.754,2023-8-21T09:44:19Z
2023-08-21T07:45:02Z,42.805,6.029,13.3035,4.60107,2470.754,2023-8-21T09:47:22Z
2023-08-21T07:48:05Z,42.805,6.029,13.3033,4.60099,2470.73,2023-8-21T09:50:25Z
2023-08-21T07:51:08Z,42.805,6.029,13.3029,4.60096,2470.74,2023-8-21T09:53:28Z
2023-08-21T07:54:11Z,42.805,6.029,13.3029,4.60099,2470.74,2023-8-21T09:56:31Z
2023-08-21T07:57:14Z,42.805,6.029,13.3033,4.60102,2470.74,2023-8-21T09:59:34Z
2023-08-21T08:00:17Z,42.805,6.029,13.3030,4.60102,2470.754,2023-8-21T10:02:37Z
2023-08-21T08:03:20Z,42.805,6.029,13.3033,4.60104,2470.763,2023-8-21T10:05:40Z
2023-08-21T08:06:23Z,42.805,6.029,13.3031,4.60110,2470.717,2023-8-21T10:08:43Z
2023-08-21T08:09:26Z,42.805,6.029,13.3029,4.60107,2470.787,2023-8-21T10:11:46Z
2023-08-21T08:12:30Z,42.805,6.029,13.3054,4.60104,2470.74,2023-8-21T10:14:49Z
2023-08-21T08:15:33Z,42.805,6.029,13.3041,4.60108,2470.717,2023-8-21T10:17:52Z
2023-08-21T08:18:36Z,42.805,6.029,13.3043,4.60112,2470.754,2023-8-21T10:20:56Z
2023-08-21T08:21:39Z,42.805,6.029,13.3048,4.60128,2470.777,2023-8-21T10:23:59Z
2023-08-21T08:24:42Z,42.805,6.029,13.3034,4.60132,2470.754,2023-8-21T10:27:02Z
2023-08-21T08:27:45Z,42.805,6.029,13.3073,4.60166,2470.74,2023-8-21T10:30:05Z
2023-08-21T08:30:47Z,42.805,6.029,13.3060,4.60144,2470.763,2023-8-21T10:33:06Z
2023-08-21T08:33:50Z,42.805,6.029,13.3090,4.60107,2470.754,2023-8-21T10:36:09Z
2023-08-21T08:36:53Z,42.805,6.029,13.3075,4.60104,2470.777,2023-8-21T10:39:13Z
2023-08-21T08:39:56Z,42.805,6.029,13.3065,4.60155,2470.8,2023-8-21T10:42:16Z
2023-08-21T08:42:59Z,42.805,6.029,13.3056,4.60154,2470.8,2023-8-21T10:45:19Z
2023-08-21T08:46:02Z,42.805,6.029,13.3067,4.60148,2470.754,2023-8-21T10:48:22Z
2023-08-21T08:49:05Z,42.805,6.029,13.3073,4.60188,2470.763,2023-8-21T10:51:25Z
2023-08-21T08:52:08Z,42.805,6.029,13.3079,4.60158,2470.754,2023-8-21T10:54:28Z
2023-08-21T08:55:11Z,42.805,6.029,13.3077,4.60120,2470.787,2023-8-21T10:57:31Z
2023-08-21T08:58:14Z,42.805,6.029,13.3071,4.60166,2470.763,2023-8-21T11:00:34Z
2023-08-21T09:01:17Z,42.805,6.029,13.3069,4.60164,2470.787,2023-8-21T11:03:37Z
2023-08-21T09:04:21Z,42.805,6.029,13.3073,4.60147,2470.763,2023-8-21T11:06:40Z
2023-08-21T09:07:24Z,42.805,6.029,13.3065,4.60134,2470.777,2023-8-21T11:09:43Z
2023-08-21T09:10:27Z,42.805,6.029,13.3070,4.60176,2470.763,2023-8-21T11:12:46Z
2023-08-21T09:13:30Z,42.805,6.029,13.3066,4.60155,2470.763,2023-8-21T11:15:50Z
2023-08-21T09:16:33Z,42.805,6.029,13.3061,4.60151,2470.763,2023-8-21T11:18:53Z
2023-08-21T09:19:36Z,42.805,6.029,13.3075,4.60140,2470.754,2023-8-21T11:21:56Z
2023-08-21T09:22:39Z,42.805,6.029,13.3069,4.60121,2470.777,2023-8-21T11:24:59Z
2023-08-21T09:25:42Z,42.805,6.029,13.3074,4.60131,2470.754,2023-8-21T11:28:02Z
2023-08-21T09:28:45Z,42.805,6.029,13.3073,4.60136,2470.787,2023-8-21T11:31:05Z
2023-08-21T09:31:48Z,42.805,6.029,13.3063,4.60150,2470.763,2023-8-21T11:34:08Z
2023-08-21T09:34:51Z,42.805,6.029,13.3082,4.60132,2470.754,2023-8-21T11:37:11Z
2023-08-21T09:37:54Z,42.805,6.029,13.3040,4.60117,2470.763,2023-8-21T11:40:14Z
2023-08-21T09:40:58Z,42.805,6.029,13.3029,4.60105,2470.787,2023-8-21T11:43:17Z
2023-08-21T09:44:01Z,42.805,6.029,13.3051,4.60129,2470.8,2023-8-21T11:46:20Z
2023-08-21T09:47:04Z,42.805,6.029,13.3031,4.60104,2470.777,2023-8-21T11:49:24Z
2023-08-21T09:50:07Z,42.805,6.029,13.3035,4.60104,2470.787,2023-8-21T11:52:27Z
2023-08-21T09:53:10Z,42.805,6.029,13.3054,4.60134,2470.8,2023-8-21T11:55:30Z
2023-08-21T09:56:13Z,42.805,6.029,13.3062,4.60137,2470.763,2023-8-21T11:58:33Z
2023-08-21T09:59:16Z,42.805,6.029,13.3072,4.60200,2470.74,2023-8-21T12:01:36Z
2023-08-21T10:02:19Z,42.805,6.029,13.3063,4.60162,2470.754,2023-8-21T12:04:39Z
2023-08-21T10:05:22Z,42.805,6.029,13.3051,4.60170,2470.8,2023-8-21T12:07:42Z
2023-08-21T10:08:25Z,42.805,6.029,13.3051,4.60177,2470.777,2023-8-21T12:10:45Z
2023-08-21T10:11:28Z,42.805,6.029,13.3061,4.60176,2470.787,2023-8-21T12:13:48Z
2023-08-21T10:14:32Z,42.805,6.029,13.3061,4.60158,2470.763,2023-8-21T12:16:51Z
2023-08-21T10:17:35Z,42.805,6.029,13.3051,4.60144,2470.787,2023-8-21T12:19:54Z
2023-08-21T10:20:38Z,42.805,6.029,13.3051,4.60155,2470.777,2023-8-21T12:22:58Z
2023-08-21T10:23:41Z,42.805,6.029,13.3054,4.60178,2470.777,2023-8-21T12:26:01Z
2023-08-21T10:26:44Z,42.805,6.029,13.3063,4.60185,2470.777,2023-8-21T12:29:04Z
2023-08-21T10:29:47Z,42.805,6.029,13.3055,4.60162,2470.763,2023-8-21T12:32:07Z
2023-08-21T10:32:50Z,42.805,6.029,13.3075,4.60127,2470.754,2023-8-21T12:35:10Z
2023-08-21T10:35:53Z,42.805,6.029,13.3060,4.60140,2470.754,2023-8-21T12:38:13Z
2023-08-21T10:38:56Z,42.805,6.029,13.3051,4.60174,2470.777,2023-8-21T12:41:16Z
2023-08-21T10:41:59Z,42.805,6.029,13.3049,4.60152,2470.763,2023-8-21T12:44:19Z
2023-08-21T10:45:02Z,42.805,6.029,13.3067,4.60173,2470.777,2023-8-21T12:47:22Z
2023-08-21T10:48:05Z,42.805,6.029,13.3058,4.60175,2470.777,2023-8-21T12:50:25Z
2023-08-21T10:51:09Z,42.805,6.029,13.3057,4.60172,2470.763,2023-8-21T12:53:28Z
2023-08-21T10:54:12Z,42.805,6.029,13.3064,4.60173,2470.74,2023-8-21T12:56:31Z
2023-08-21T10:57:15Z,42.805,6.029,13.3051,4.60164,2470.763,2023-8-21T12:59:35Z
2023-08-21T11:00:18Z,42.805,6.029,13.3058,4.60170,2470.754,2023-8-21T13:02:38Z
2023-08-21T11:03:21Z,42.805,6.029,13.3069,4.60185,2470.74,2023-8-21T13:05:41Z
2023-08-21T11:06:24Z,42.805,6.029,13.3059,4.60173,2470.8,2023-8-21T13:08:44Z
2023-08-21T11:09:27Z,42.805,6.029,13.3060,4.60188,2470.754,2023-8-21T13:11:47Z
2023-08-21T11:12:30Z,42.805,6.029,13.3061,4.60189,2470.74,2023-8-21T13:14:50Z
2023-08-21T11:15:33Z,42.805,6.029,13.3057,4.60174,2470.777,2023-8-21T13:17:53Z
2023-08-21T11:18:36Z,42.805,6.029,13.3068,4.60156,2470.763,2023-8-21T13:20:56Z
2023-08-21T11:21:39Z,42.805,6.029,13.3056,4.60144,2470.74,2023-8-21T13:23:59Z
2023-08-21T11:24:43Z,42.805,6.029,13.3052,4.60164,2470.824,2023-8-21T13:27:02Z
2023-08-21T11:27:46Z,42.805,6.029,13.3043,4.60168,2470.754,2023-8-21T13:30:05Z
2023-08-21T11:30:49Z,42.805,6.029,13.3059,4.60146,2470.754,2023-8-21T13:33:09Z
2023-08-21T11:33:52Z,42.805,6.029,13.3054,4.60175,2470.717,2023-8-21T13:36:12Z
2023-08-21T11:36:55Z,42.805,6.029,13.3057,4.60168,2470.754,2023-8-21T13:39:15Z
2023-08-21T11:39:58Z,42.805,6.029,13.3051,4.60157,2470.74,2023-8-21T13:42:18Z
2023-08-21T11:43:01Z,42.805,6.029,13.3056,4.60181,2470.74,2023-8-21T13:45:21Z
2023-08-21T11:46:04Z,42.805,6.029,13.3070,4.60149,2470.74,2023-8-21T13:48:24Z
2023-08-21T11:49:07Z,42.805,6.029,13.3041,4.60146,2470.73,2023-8-21T13:51:27Z
2023-08-21T11:52:10Z,42.805,6.029,13.3049,4.60185,2470.693,2023-8-21T13:54:30Z
2023-08-21T11:55:13Z,42.805,6.029,13.3057,4.60144,2470.73,2023-8-21T13:57:33Z
2023-08-21T11:58:17Z,42.805,6.029,13.3070,4.60157,2470.717,2023-8-21T14:00:36Z
2023-08-21T12:01:20Z,42.805,6.029,13.3049,4.60189,2470.707,2023-8-21T14:03:39Z
2023-08-21T12:04:23Z,42.805,6.029,13.3042,4.60144,2470.74,2023-8-21T14:06:43Z
2023-08-21T12:07:26Z,42.805,6.029,13.3061,4.60152,2470.74,2023-8-21T14:09:46Z
2023-08-21T12:10:29Z,42.805,6.029,13.3044,4.60143,2470.74,2023-8-21T14:12:49Z
2023-08-21T12:13:32Z,42.805,6.029,13.3053,4.60123,2470.74,2023-8-21T14:15:52Z
2023-08-21T12:16:35Z,42.805,6.029,13.3056,4.60150,2470.693,2023-8-21T14:18:55Z
2023-08-21T12:19:38Z,42.805,6.029,13.3048,4.60160,2470.73,2023-8-21T14:21:58Z
2023-08-21T12:22:41Z,42.805,6.029,13.3060,4.60145,2470.74,2023-8-21T14:25:01Z
2023-08-21T12:25:44Z,42.805,6.029,13.3043,4.60145,2470.693,2023-8-21T14:28:04Z
2023-08-21T12:28:47Z,42.805,6.029,13.3052,4.60178,2470.73,2023-8-21T14:31:07Z
2023-08-21T12:31:52Z,42.805,6.029,13.3054,4.60183,2470.693,2023-8-21T14:34:12Z
2023-08-21T12:34:55Z,42.805,6.029,13.3072,4.60132,2470.693,2023-8-21T14:37:15Z
2023-08-21T12:37:58Z,42.805,6.029,13.3069,4.60159,2470.707,2023-8-21T14:40:18Z
2023-08-21T12:41:01Z,42.805,6.029,13.3080,4.60183,2470.693,2023-8-21T14:43:21Z
2023-08-21T12:44:04Z,42.805,6.029,13.3075,4.60185,2470.73,2023-8-21T14:46:24Z
2023-08-21T12:47:08Z,42.805,6.029,13.3074,4.60142,2470.693,2023-8-21T14:49:27Z
2023-08-21T12:50:11Z,42.805,6.029,13.3059,4.60200,2470.693,2023-8-21T14:52:30Z
2023-08-21T12:53:14Z,42.805,6.029,13.3080,4.60169,2470.717,2023-8-21T14:55:34Z
2023-08-21T12:56:17Z,42.805,6.029,13.3096,4.60123,2470.693,2023-8-21T14:58:37Z
2023-08-21T12:59:20Z,42.805,6.029,13.3116,4.60152,2470.684,2023-8-21T15:01:40Z
2023-08-21T13:02:23Z,42.805,6.029,13.3106,4.60167,2470.67,2023-8-21T15:04:43Z
2023-08-21T13:05:26Z,42.805,6.029,13.3101,4.60157,2470.73,2023-8-21T15:07:46Z
2023-08-21T13:08:29Z,42.805,6.029,13.3076,4.60185,2470.693,2023-8-21T15:10:49Z
2023-08-21T13:11:32Z,42.805,6.029,13.3070,4.60203,2470.707,2023-8-21T15:13:52Z
2023-08-21T13:14:35Z,42.805,6.029,13.3073,4.60202,2470.693,2023-8-21T15:16:55Z
2023-08-21T13:17:38Z,42.805,6.029,13.3096,4.60157,2470.703,2023-8-21T15:19:58Z
2023-08-21T13:20:41Z,42.805,6.029,13.3091,4.60175,2470.693,2023-8-21T15:23:01Z
2023-08-21T13:23:45Z,42.805,6.029,13.3093,4.60137,2470.693,2023-8-21T15:26:04Z
2023-08-21T13:26:48Z,42.805,6.029,13.3060,4.60120,2470.684,2023-8-21T15:29:07Z
2023-08-21T13:29:51Z,42.805,6.029,13.3078,4.60127,2470.67,2023-8-21T15:32:11Z
2023-08-21T13:32:54Z,42.805,6.029,13.3059,4.60165,2470.646,2023-8-21T15:35:14Z
2023-08-21T13:35:57Z,42.805,6.029,13.3099,4.60193,2470.67,2023-8-21T15:38:17Z
2023-08-21T13:39:00Z,42.805,6.029,13.3089,4.60180,2470.684,2023-8-21T15:41:20Z
2023-08-21T13:42:03Z,42.805,6.029,13.3087,4.60198,2470.67,2023-8-21T15:44:23Z
2023-08-21T13:45:06Z,42.805,6.029,13.3093,4.60139,2470.684,2023-8-21T15:47:26Z
2023-08-21T13:48:09Z,42.805,6.029,13.3083,4.60117,2470.684,2023-8-21T15:50:29Z
2023-08-21T13:51:12Z,42.805,6.029,13.3053,4.60133,2470.646,2023-8-21T15:53:32Z
2023-08-21T13:54:15Z,42.805,6.029,13.3069,4.60112,2470.661,2023-8-21T15:56:35Z
2023-08-21T13:57:19Z,42.805,6.029,13.3073,4.60108,2470.684,2023-8-21T15:59:38Z
2023-08-21T14:00:22Z,42.805,6.029,13.3066,4.60135,2470.67,2023-8-21T16:02:41Z
2023-08-21T14:03:25Z,42.805,6.029,13.3048,4.60133,2470.637,2023-8-21T16:05:45Z
2023-08-21T14:06:28Z,42.805,6.029,13.3059,4.60140,2470.661,2023-8-21T16:08:48Z
2023-08-21T14:09:31Z,42.805,6.029,13.3046,4.60123,2470.693,2023-8-21T16:11:51Z
2023-08-21T14:12:34Z,42.805,6.029,13.3079,4.60119,2470.684,2023-8-21T16:14:54Z
2023-08-21T14:15:37Z,42.805,6.029,13.3059,4.60108,2470.661,2023-8-21T16:17:57Z
2023-08-21T14:18:40Z,42.805,6.029,13.3045,4.60132,2470.637,2023-8-21T16:21:00Z
2023-08-21T14:21:43Z,42.805,6.029,13.3066,4.60112,2470.67,2023-8-21T16:24:03Z
2023-08-21T14:24:46Z,42.805,6.029,13.3069,4.60116,2470.661,2023-8-21T16:27:06Z
2023-08-21T14:27:49Z,42.805,6.029,13.3078,4.60136,2470.684,2023-8-21T16:30:09Z
2023-08-21T14:30:52Z,42.805,6.029,13.3076,4.60140,2470.67,2023-8-21T16:33:12Z
2023-08-21T14:33:55Z,42.805,6.029,13.3073,4.60148,2470.684,2023-8-21T16:36:15Z
2023-08-21T14:36:58Z,42.805,6.029,13.3081,4.60123,2470.661,2023-8-21T16:39:18Z
2023-08-21T14:40:01Z,42.805,6.029,13.3062,4.60118,2470.646,2023-8-21T16:42:21Z
2023-08-21T14:43:04Z,42.805,6.029,13.3068,4.60121,2470.646,2023-8-21T16:45:24Z
2023-08-21T14:46:07Z,42.805,6.029,13.3059,4.60129,2470.646,2023-8-21T16:48:27Z
2023-08-21T14:49:10Z,42.805,6.029,13.3069,4.60110,2470.624,2023-8-21T16:51:30Z
2023-08-21T14:52:13Z,42.805,6.029,13.3057,4.60115,2470.661,2023-8-21T16:54:33Z
2023-08-21T14:55:16Z,42.805,6.029,13.3071,4.60132,2470.646,2023-8-21T16:57:36Z
2023-08-21T14:58:20Z,42.805,6.029,13.3069,4.60137,2470.684,2023-8-21T17:00:39Z
2023-08-21T15:01:23Z,42.805,6.029,13.3069,4.60124,2470.614,2023-8-21T17:03:42Z
2023-08-21T15:04:26Z,42.805,6.029,13.3062,4.60119,2470.637,2023-8-21T17:06:46Z
2023-08-21T15:07:29Z,42.805,6.029,13.3063,4.60117,2470.646,2023-8-21T17:09:49Z
2023-08-21T15:10:32Z,42.805,6.029,13.3059,4.60122,2470.661,2023-8-21T17:12:52Z